Tracking 25734 objects as of 28-May-2022
HD Live streaming from Space Station
objects crossing your sky now

JCSAT 13

Track JCSAT 13 now!
JCSAT 13 is classified as:


NORAD ID: 38331
Int'l Code: 2012-023A
Perigee: 35,781.1 km
Apogee: 35,806.3 km
Inclination: 0.0 °
Period: 1,436.1 minutes
Semi major axis: 42164 km
RCS: 10 m2 (large)
Launch date: May 15, 2012
Source: Japan (JPN)
Launch site: FRENCH GUIANA (FRGUI)

JCSAT-13, owned by Japan's SkyPerfect JSat Corp., carries 44 Ku-band transponders and two steerable beams for television and telecommunications services. Weighing 4,528 kilograms (9,983 pounds) at launch, it will operate from 124 degrees east longitude.
aabbcc
Your satellite tracking list
Your tracking list is empty




NASA's NSSDC Master Catalog

Two Line Element Set (TLE):
1 38331U 12023A   22147.97341149 -.00000352  00000-0  00000+0 0  9990
2 38331   0.0085  69.8774 0002991  29.9324 260.1205  1.00271842 36723
Source of the keplerian elements: AFSPC